Theta_e
297 298 299 300 301 302 302 303 305 310 313 325 325 324 323 325 324 326 327 326 326 326 327 324 323 324 324 324 324 324 323 321 323 319 318 319 320 318 319 320 320 320 320
294 297 298 299 300 300 302 303 304 311 319 324 325 325 324 325 324 325 325 325 325 326 325 324 322 323 324 324 322 322 319 319 320 315 315 311 314 315 315 317 318 319 320
289 293 296 297 299 300 302 303 305 314 321 327 327 324 325 322 321 321 322 323 325 325 325 324 324 323 324 323 322 321 319 315 315 314 313 308 308 313 315 314 315 315 315
288 291 294 297 298 300 303 304 307 319 324 327 324 322 320 318 320 321 322 322 324 323 324 323 324 323 323 323 322 322 321 320 316 313 313 312 305 306 305 304 302 302 300
287 289 293 296 298 301 302 304 309 319 324 327 325 323 322 322 322 321 320 321 322 322 322 323 323 322 322 323 322 322 321 321 319 315 312 308 308 305 301 303 297 297 296
290 291 294 296 298 301 302 305 313 313 311 313 315 309 303 311 316 319 319 319 320 318 317 320 320 319 319 318 315 308 304 305 301 297 296 297 297 297 298 296 297 296 291
292 293 295 296 297 299 305 308 305 301 303 302 301 302 299 298 297 298 298 299 297 296 297 298 297 297 297 296 295 294 293 293 292 291 290 290 289 291 293 293 292 290 291
290 294 297 301 304 303 302 301 299 297 296 296 295 295 296 294 294 294 293 293 293 293 294 293 293 293 292 292 291 290 289 289 288 287 287 286 286 286 285 286 286 288 288
286 288 291 293 294 296 297 296 294 292 293 293 293 293 292 291 290 290 291 290 291 290 290 290 289 289 289 288 287 286 285 285 284 284 284 284 284 285 285 286 285 285 283
283 285 287 288 289 290 292 292 291 288 289 289 289 289 288 288 288 287 286 286 286 288 286 285 285 285 285 284 284 283 282 281 281 281 281 281 282 283 283 283 284 284 282
280 283 285 286 285 286 287 287 286 285 285 286 286 286 286 286 285 284 284 283 284 284 283 282 282 281 281 281 281 280 280 279 279 280 279 279 280 280 280 280 280 279 280
278 281 282 283 282 283 282 282 283 282 283 283 283 283 283 283 282 281 281 281 280 281 280 280 280 279 279 279 279 278 278 278 277 278 278 277 279 278 278 278 278 277 278
275 277 278 279 279 279 279 279 280 281 282 281 281 281 280 280 280 280 280 280 279 278 278 278 278 278 278 278 278 278 277 276 276 276 276 276 276 276 276 276 275 276 277
273 274 275 276 277 277 278 278 279 280 280 280 280 279 279 279 279 280 280 280 280 279 279 278 277 277 276 276 276 276 276 276 276 276 275 275 276 275 276 275 274 274 274
271 272 273 274 276 276 277 278 278 279 279 278 278 278 279 279 279 279 279 279 279 279 279 278 278 278 278 277 275 275 274 274 274 275 276 275 275 278 277 276 275 273 272
269 271 272 274 275 276 277 278 278 278 278 277 277 277 277 277 278 278 279 279 278 278 278 277 277 277 278 279 279 276 274 274 273 272 273 275 275 275 276 277 277 275 271
269 270 272 273 275 277 277 276 277 278 277 276 276 276 276 276 276 277 277 276 277 278 278 278 277 276 277 279 278 277 275 274 273 272 271 272 273 274 274 275 275 274 274
270 270 272 274 275 276 276 277 276 276 275 275 275 276 275 275 275 275 274 275 276 275 276 276 277 277 278 279 278 277 274 273 273 272 271 270 270 272 273 272 270 270 269
270 272 272 273 275 274 275 275 274 274 274 273 273 274 274 273 274 273 273 274 274 274 274 275 275 276 276 279 279 276 274 273 272 272 271 270 269 273 274 269 268 267 268
270 271 272 273 273 274 276 274 273 273 272 272 272 273 273 272 272 272 272 273 273 273 273 273 273 274 275 278 278 276 273 271 271 271 270 271 270 272 272 268 265 264 266
271 272 273 272 273 274 274 272 272 271 273 273 273 272 272 272 272 272 272 272 271 271 271 272 272 273 273 275 277 276 272 271 269 268 266 267 270 270 270 269 265 266 266
271 272 271 271 272 273 272 271 270 271 272 272 271 271 272 272 272 271 272 272 272 271 270 271 271 272 273 275 275 274 273 272 267 266 265 265 269 269 268 266 268 267 263
271 271 270 270 270 271 271 269 269 270 269 269 268 269 270 272 272 272 272 272 272 270 270 270 270 271 272 272 274 272 271 271 268 267 266 266 267 266 264 265 266 262 260
270 270 269 268 267 269 269 269 269 269 267 267 268 269 269 270 271 272 272 271 271 271 270 269 269 270 271 270 271 269 267 269 266 264 261 264 264 264 264 261 261 260 260
269 269 268 267 267 267 267 268 268 268 268 268 268 269 268 269 269 270 270 270 270 272 270 270 270 267 268 269 271 269 266 266 266 260 260 259 259 258 259 259 259 259 259
268 268 267 267 266 266 265 264 265 267 267 268 268 268 268 268 268 268 268 270 270 271 272 272 271 270 271 271 270 269 268 267 265 259 257 257 257 257 257 257 257 257 257
Wind_Speed
16 15 13 11 14 12 13 13 11 10 7 7 4 4 5 5 4 1 3 9 5 10 10 8 8 8 8 7 6 6 6 4 3 1 4 5 5 7 6 6 8 10 10
18 13 13 11 13 11 12 13 12 13 9 6 4 3 3 3 5 6 6 8 6 6 9 8 8 8 6 7 8 7 2 3 4 2 2 2 5 8 8 8 8 10 4
15 15 14 12 13 11 11 11 12 13 9 8 6 4 7 5 4 6 5 6 6 7 8 9 8 7 7 6 8 7 8 4 2 5 3 2 5 4 4 9 7 5 3
16 14 14 12 12 10 9 10 12 10 10 8 7 11 8 8 6 9 7 9 9 7 8 8 8 6 6 8 6 7 7 8 7 4 7 5 1 2 3 0 4 6 7
16 15 13 11 12 10 8 9 11 11 9 11 10 8 7 5 5 5 9 9 10 9 6 5 8 7 7 7 8 7 7 5 7 3 1 3 3 3 3 6 3 3 5
5 10 12 12 12 10 9 7 8 10 14 12 14 11 13 10 4 5 7 6 6 5 4 5 3 1 0 2 5 11 12 10 10 8 9 6 3 2 1 2 2 2 4
7 5 6 6 5 5 5 14 11 13 14 17 18 14 14 17 15 13 12 10 8 10 13 13 14 12 12 16 15 15 14 14 11 11 9 7 8 6 4 2 3 2 2
20 19 18 16 14 15 16 16 12 17 19 19 19 16 17 13 13 16 13 11 11 12 15 15 17 18 17 17 16 14 13 14 14 14 11 10 9 8 9 6 3 2 2
19 18 17 15 16 16 18 14 14 21 20 21 18 18 16 20 19 18 16 12 12 13 17 19 19 20 16 17 15 14 14 15 12 14 11 12 9 10 7 6 7 3 4
22 19 17 16 15 16 14 13 20 25 21 20 18 16 18 18 23 18 20 16 15 16 18 19 18 20 19 18 17 16 15 15 12 10 13 11 8 7 7 7 6 6 4
20 18 15 15 16 13 13 16 22 29 21 19 19 17 19 20 22 21 18 18 16 19 25 19 18 19 21 18 17 18 15 17 13 12 13 13 11 8 8 7 7 7 6
20 18 17 17 15 12 15 22 23 24 19 18 18 20 20 22 25 22 22 19 21 20 20 19 20 19 18 17 18 17 15 16 15 14 14 14 9 12 10 7 8 7 7
22 19 19 15 12 14 19 22 21 21 17 18 20 21 23 23 23 23 21 18 20 21 20 19 19 18 17 17 16 15 15 14 14 13 13 13 13 12 10 9 9 7 7
19 20 18 15 13 17 21 19 21 17 17 20 20 22 22 22 21 20 20 20 18 20 20 19 18 17 15 14 14 14 13 13 12 11 12 11 11 11 10 9 9 9 9
20 18 13 12 16 21 18 17 18 18 17 20 21 21 20 20 20 19 21 18 18 19 17 17 17 16 14 11 11 12 12 11 10 10 9 10 14 22 19 10 11 11 10
17 16 15 17 21 16 15 16 18 18 18 21 21 19 18 18 17 20 18 16 19 18 16 17 16 16 12 23 22 14 10 11 11 11 12 11 13 17 22 21 20 14 12
12 13 14 15 15 15 15 17 17 17 19 19 18 17 17 19 18 16 16 17 17 14 16 15 16 16 14 22 21 20 10 11 11 12 12 13 12 14 14 18 20 16 18
10 13 12 13 14 15 16 16 17 17 18 18 17 17 16 17 15 15 16 15 12 13 13 15 14 14 15 24 20 18 13 12 11 10 12 13 15 16 18 16 15 15 14
10 9 10 10 12 13 13 15 16 16 17 17 16 14 14 14 13 15 13 12 11 11 12 11 13 13 14 24 22 15 11 11 10 10 12 12 14 23 25 16 15 14 14
7 9 10 10 13 13 12 15 16 16 16 14 15 14 13 12 14 13 11 10 12 11 10 13 12 14 12 23 23 17 9 10 9 10 12 16 18 25 25 15 14 13 14
6 7 8 10 10 9 10 14 14 15 13 12 12 12 12 13 12 11 10 10 11 11 9 10 9 10 10 13 21 21 11 10 8 8 9 10 23 23 22 20 11 14 16
8 9 10 11 11 11 12 14 15 11 11 11 11 11 11 9 8 9 9 9 7 8 7 6 6 4 7 16 16 18 17 16 8 9 9 10 23 21 19 14 20 21 16
7 7 9 10 10 9 9 12 10 9 8 8 8 9 9 9 9 10 8 7 6 7 8 5 5 6 6 6 15 18 20 19 11 9 13 18 19 19 13 19 20 14 8
7 6 8 8 9 8 9 10 8 7 6 9 8 8 9 8 7 6 6 6 6 4 5 7 6 5 4 7 9 9 8 11 9 12 8 13 14 15 14 9 10 8 8
6 5 6 7 7 6 7 6 6 4 7 7 7 7 6 6 6 7 5 5 7 6 4 5 4 5 6 7 12 12 8 8 11 8 6 7 8 9 9 9 8 8 8
8 6 5 6 6 5 5 4 5 4 4 6 5 4 4 4 4 4 4 12 12 13 12 10 9 5 10 13 15 16 14 14 14 4 6 7 7 8 9 9 10 9 10
Wind_Direction
277 270 276 281 272 271 272 270 272 252 227 208 200 252 173 180 122 87 180 139 166 164 189 165 172 173 196 185 199 199 210 190 240 219 233 252 234 240 238 240 235 231 224
325 287 274 268 265 266 267 272 277 264 220 217 199 158 175 158 155 143 149 137 158 200 181 177 179 188 196 199 180 204 169 208 183 187 329 254 220 230 224 226 231 243 243
306 298 295 278 266 256 258 273 289 259 230 210 156 154 158 134 130 144 151 146 154 209 193 191 184 186 200 208 198 190 200 188 179 211 213 221 239 269 169 228 232 240 269
298 284 277 276 265 253 261 279 282 240 214 168 158 175 175 170 172 177 172 173 168 192 211 198 196 187 207 216 210 198 206 218 222 192 230 247 83 300 280 304 34 47 34
280 273 271 271 272 274 264 276 282 251 205 167 150 184 181 174 149 153 181 175 179 170 156 178 194 206 214 212 218 211 224 234 243 217 175 215 250 183 253 283 72 82 55
274 270 267 260 252 252 251 269 39 50 64 64 77 74 67 44 77 147 176 175 175 131 99 171 186 269 207 83 41 52 48 59 62 60 41 25 31 88 12 347 346 22 38
8 311 276 247 232 260 355 68 65 64 66 69 69 67 73 74 56 53 53 52 53 57 53 66 63 63 60 67 67 65 54 56 65 63 66 56 47 18 17 31 10 2 16
9 14 13 19 58 65 69 71 73 74 66 69 65 62 61 74 67 67 62 56 64 61 71 68 69 69 67 68 73 69 66 55 56 50 56 65 44 34 41 12 353 339 348
6 12 14 32 43 51 62 76 87 76 67 71 73 71 74 74 70 65 66 61 56 74 69 66 64 63 66 72 63 65 62 61 58 51 38 53 41 43 36 34 34 9 355
5 14 17 31 37 48 65 81 74 70 59 62 66 71 71 72 74 64 61 56 56 62 76 61 63 61 59 61 68 64 62 66 58 57 58 54 47 45 39 30 27 25 0
2 12 17 32 40 48 56 69 68 67 60 61 63 65 68 73 76 68 62 59 62 57 60 61 63 65 60 60 66 65 63 66 67 58 53 50 41 42 34 30 23 16 6
5 14 17 33 39 41 57 61 63 72 66 68 70 68 70 69 71 68 63 54 60 62 66 65 65 66 66 64 66 67 61 59 54 50 51 45 33 35 29 23 15 14 350
8 15 26 24 37 46 54 57 60 66 67 69 68 68 68 65 68 72 72 73 73 70 69 69 67 63 60 62 62 64 64 61 56 49 47 41 34 33 19 16 6 360 339
18 11 22 23 37 51 56 60 64 68 73 71 69 69 68 71 70 71 72 67 65 72 68 64 66 66 62 59 56 56 56 54 50 53 51 36 28 28 19 14 5 356 345
15 17 13 24 48 49 55 63 72 67 69 73 71 69 69 69 70 73 69 68 65 67 68 70 66 63 62 59 58 60 59 54 49 44 40 41 27 22 14 5 -0 354 346
11 11 17 34 40 50 64 68 68 70 70 70 69 70 72 76 73 68 70 71 70 68 66 63 63 60 56 56 57 61 58 52 43 36 25 22 23 10 6 358 355 355 346
10 14 25 38 46 60 64 63 63 66 68 70 69 70 69 68 66 70 69 63 63 65 66 67 65 61 51 48 47 45 46 46 39 32 25 15 9 360 357 353 350 349 347
24 24 29 42 45 51 55 65 64 65 65 65 64 63 65 66 65 64 63 62 63 62 59 59 58 55 47 45 37 40 38 34 33 28 24 15 2 351 350 351 345 346 338
22 27 31 34 55 59 61 66 66 66 65 62 62 63 67 69 67 65 63 61 62 63 57 51 47 48 44 36 37 30 30 22 17 16 20 8 356 346 348 348 344 340 331
27 30 40 48 48 47 61 66 65 63 63 63 62 58 61 65 61 60 59 57 56 60 54 53 43 33 31 29 29 34 17 9 10 9 7 2 351 350 350 351 349 334 334
61 60 63 66 66 65 68 69 70 67 69 68 69 66 64 63 61 59 54 56 55 51 48 53 49 36 18 24 26 26 19 10 7 352 354 355 344 350 351 357 337 334 346
75 66 71 65 61 68 79 81 75 74 75 75 69 62 58 63 62 63 57 51 57 53 54 46 42 29 30 24 21 22 19 15 9 358 347 339 346 348 348 353 338 346 344
86 80 84 80 63 62 76 85 84 89 85 78 69 60 59 56 52 50 48 51 47 42 39 38 23 26 22 19 19 14 10 6 8 358 340 339 345 347 345 341 340 353 323
118 111 105 96 89 76 78 85 91 82 70 71 68 63 62 58 57 57 48 42 40 41 39 30 26 359 5 10 14 15 3 351 354 359 339 340 348 343 342 334 337 326 318
133 126 119 111 104 97 83 68 76 60 81 76 73 72 67 63 75 58 55 63 39 43 39 24 25 7 9 3 358 1 359 350 351 358 334 340 345 339 336 332 325 318 311
153 147 133 119 105 86 71 46 21 22 76 86 77 73 84 79 61 58 76 50 42 29 26 23 26 12 357 357 355 357 352 344 355 339 336 333 335 326 318 313 310 305 297